^^
Saratoga-Weather Station Historical Data
Daily Summary for March 16, 2020 Units:  Metric    English   Both
Daily Weekly Monthly Yearly Custom
  High: Low: Average:
Temperature: 33.7 °C 15.2 °C 22.8 °C
Dew Point: 16.9 °C 10.4 °C 14.2 °C
Humidity: 89% 30% 62%
Wind Speed: 19.5km/h 0km/h 1.7km/h
Wind Gust: 30.6km/h - -
Wind- - SSW
Pressure: 1020.3 hPa 1015.6 hPa -
Precipitation: 0.0 mm    
Historical Graphs
 
 
Tabular Data for March 16, 2020
Time Temperature Dew Point Pressure Wind Wind Speed Wind Gust Humidity Rainfall Rate (Hourly) solar
00:04 20.9 °C 14.5 °C 1017.3 hPa Calm     67% 0.0 mm 0 W/m2
00:09 20.9 °C 14.5 °C 1017.3 hPa Calm     67% 0.0 mm 0 W/m2
00:14 20.8 °C 14.4 °C 1017.3 hPa Calm     67% 0.0 mm 0 W/m2
00:19 20.8 °C 14.4 °C 1017.3 hPa Calm     67% 0.0 mm 0 W/m2
00:24 20.7 °C 14.6 °C 1017.3 hPa Calm     68% 0.0 mm 0 W/m2
00:29 20.7 °C 14.6 °C 1017.6 hPa Calm     68% 0.0 mm 0 W/m2
00:34 20.6 °C 14.5 °C 1017.6 hPa Calm     68% 0.0 mm 0 W/m2
00:39 20.4 °C 14.5 °C 1017.3 hPa Calm     69% 0.0 mm 0 W/m2
00:44 20.3 °C 14.4 °C 1017.6 hPa Calm     69% 0.0 mm 0 W/m2
00:49 20.2 °C 14.6 °C 1017.6 hPa Calm     70% 0.0 mm 0 W/m2
00:54 20.1 °C 14.5 °C 1017.6 hPa Calm   1.6 km/h 70% 0.0 mm 0 W/m2
00:59 19.9 °C 14.3 °C 1017.3 hPa Calm     70% 0.0 mm 0 W/m2
01:04 19.8 °C 14.4 °C 1017.3 hPa Calm   1.6 km/h 71% 0.0 mm 0 W/m2
01:09 19.7 °C 14.3 °C 1017.3 hPa Calm     71% 0.0 mm 0 W/m2
01:14 19.7 °C 14.3 °C 1017.6 hPa Calm     71% 0.0 mm 0 W/m2
01:19 19.6 °C 14.2 °C 1017.6 hPa Calm     71% 0.0 mm 0 W/m2
01:24 19.6 °C 14.4 °C 1017.3 hPa Calm     72% 0.0 mm 0 W/m2
01:29 19.5 °C 14.5 °C 1017.3 hPa Calm     73% 0.0 mm 0 W/m2
01:34 19.4 °C 14.6 °C 1017.3 hPa Calm     74% 0.0 mm 0 W/m2
01:39 19.5 °C 14.9 °C 1017.3 hPa Calm     75% 0.0 mm 0 W/m2
01:44 19.6 °C 14.8 °C 1017.3 hPa Calm     74% 0.0 mm 0 W/m2
01:49 19.6 °C 14.6 °C 1017.3 hPa Calm     73% 0.0 mm 0 W/m2
01:54 19.6 °C 14.8 °C 1017.3 hPa Calm     74% 0.0 mm 0 W/m2
01:59 19.4 °C 14.6 °C 1017.3 hPa Calm     74% 0.0 mm 0 W/m2
02:04 19.3 °C 14.5 °C 1017.3 hPa Calm     74% 0.0 mm 0 W/m2
02:09 19.2 °C 14.5 °C 1017.3 hPa Calm     74% 0.0 mm 0 W/m2
02:14 19.1 °C 14.6 °C 1017.3 hPa Calm     75% 0.0 mm 0 W/m2
02:19 18.9 °C 14.4 °C 1017.3 hPa Calm     75% 0.0 mm 0 W/m2
02:24 18.8 °C 14.3 °C 1017.3 hPa Calm     75% 0.0 mm 0 W/m2
02:29 18.8 °C 14.5 °C 1017.3 hPa Calm     76% 0.0 mm 0 W/m2
02:34 18.7 °C 14.4 °C 1017.3 hPa Calm     76% 0.0 mm 0 W/m2
02:39 18.6 °C 14.3 °C 1017.3 hPa Calm     76% 0.0 mm 0 W/m2
02:44 18.5 °C 14.2 °C 1017.3 hPa Calm     76% 0.0 mm 0 W/m2
02:49 18.3 °C 14.2 °C 1017.3 hPa Calm     77% 0.0 mm 0 W/m2
02:54 18.3 °C 14.2 °C 1017.3 hPa Calm     77% 0.0 mm 0 W/m2
02:59 18.2 °C 14.1 °C 1017.3 hPa Calm     77% 0.0 mm 0 W/m2
03:05 18.1 °C 14.2 °C 1017.3 hPa Calm     78% 0.0 mm 0 W/m2
03:10 18 °C 14.1 °C 1017.3 hPa Calm     78% 0.0 mm 0 W/m2
03:15 17.9 °C 14 °C 1017.3 hPa Calm     78% 0.0 mm 0 W/m2
03:20 17.8 °C 14.1 °C 1016.9 hPa Calm     79% 0.0 mm 0 W/m2
03:25 17.8 °C 14.1 °C 1016.9 hPa Calm     79% 0.0 mm 0 W/m2
03:30 17.7 °C 14 °C 1016.9 hPa Calm     79% 0.0 mm 0 W/m2
03:35 17.7 °C 13.8 °C 1017.3 hPa Calm     78% 0.0 mm 0 W/m2
03:40 17.8 °C 13.9 °C 1017.3 hPa Calm   1.6 km/h 78% 0.0 mm 0 W/m2
03:45 17.9 °C 14 °C 1017.3 hPa Calm   1.6 km/h 78% 0.0 mm 0 W/m2
03:50 18.1 °C 14 °C 1017.3 hPa Calm     77% 0.0 mm 0 W/m2
03:55 18 °C 13.9 °C 1017.3 hPa Calm   1.6 km/h 77% 0.0 mm 0 W/m2
04:00 17.9 °C 13.8 °C 1017.3 hPa Calm     77% 0.0 mm 0 W/m2
04:05 17.8 °C 13.7 °C 1017.3 hPa Calm     77% 0.0 mm 0 W/m2
04:10 17.8 °C 13.9 °C 1017.3 hPa Calm     78% 0.0 mm 0 W/m2
04:15 17.7 °C 13.8 °C 1017.3 hPa Calm     78% 0.0 mm 0 W/m2
04:20 17.5 °C 13.6 °C 1017.3 hPa Calm     78% 0.0 mm 0 W/m2
04:25 17.4 °C 13.7 °C 1016.9 hPa Calm     79% 0.0 mm 0 W/m2
04:30 17.2 °C 13.7 °C 1016.9 hPa Calm     80% 0.0 mm 0 W/m2
04:35 17.2 °C 13.7 °C 1016.9 hPa Calm     80% 0.0 mm 0 W/m2
04:40 17.2 °C 13.7 °C 1016.9 hPa Calm     80% 0.0 mm 0 W/m2
04:45 17.2 °C 13.7 °C 1016.9 hPa Calm     80% 0.0 mm 0 W/m2
04:50 17.2 °C 13.7 °C 1016.9 hPa Calm     80% 0.0 mm 0 W/m2
04:55 17 °C 13.5 °C 1016.9 hPa Calm     80% 0.0 mm 0 W/m2
05:00 16.9 °C 13.4 °C 1016.9 hPa Calm     80% 0.0 mm 0 W/m2
05:05 16.8 °C 13.5 °C 1016.9 hPa Calm     81% 0.0 mm 0 W/m2
05:10 16.7 °C 13.4 °C 1016.9 hPa Calm     81% 0.0 mm 0 W/m2
05:15 16.7 °C 13.6 °C 1016.9 hPa Calm     82% 0.0 mm 0 W/m2
05:20 16.7 °C 13.6 °C 1016.9 hPa Calm     82% 0.0 mm 0 W/m2
05:25 16.7 °C 13.6 °C 1016.9 hPa Calm     82% 0.0 mm 0 W/m2
05:30 16.7 °C 13.6 °C 1016.9 hPa Calm     82% 0.0 mm 0 W/m2
05:35 16.7 °C 13.6 °C 1016.9 hPa Calm     82% 0.0 mm 0 W/m2
05:40 16.6 °C 13.7 °C 1016.9 hPa Calm     83% 0.0 mm 0 W/m2
05:45 16.5 °C 13.8 °C 1016.9 hPa Calm     84% 0.0 mm 0 W/m2
05:50 16.4 °C 13.7 °C 1016.9 hPa Calm     84% 0.0 mm 0 W/m2
05:56 16.3 °C 13.6 °C 1016.9 hPa Calm     84% 0.0 mm 0 W/m2
06:01 16.2 °C 13.7 °C 1016.9 hPa Calm     85% 0.0 mm 0 W/m2
06:06 16.2 °C 13.7 °C 1016.9 hPa Calm     85% 0.0 mm 0 W/m2
06:11 16.2 °C 13.7 °C 1016.9 hPa Calm     85% 0.0 mm 0 W/m2
06:16 16.1 °C 13.6 °C 1016.9 hPa Calm     85% 0.0 mm 0 W/m2
06:21 16 °C 13.5 °C 1016.9 hPa Calm     85% 0.0 mm 0 W/m2
06:26 15.9 °C 13.4 °C 1016.9 hPa Calm     85% 0.0 mm 0 W/m2
06:31 15.8 °C 13.5 °C 1016.9 hPa Calm     86% 0.0 mm 0 W/m2
06:36 15.8 °C 13.5 °C 1016.9 hPa Calm     86% 0.0 mm 0 W/m2
06:41 15.7 °C 13.4 °C 1016.9 hPa Calm     86% 0.0 mm 0 W/m2
06:46 15.7 °C 13.4 °C 1016.9 hPa Calm     86% 0.0 mm 0 W/m2
06:51 15.7 °C 13.4 °C 1016.9 hPa Calm     86% 0.0 mm 0 W/m2
06:56 15.6 °C 13.3 °C 1016.9 hPa Calm     86% 0.0 mm 0 W/m2
07:01 15.5 °C 13.3 °C 1017.3 hPa Calm     87% 0.0 mm 0 W/m2
07:06 15.4 °C 13.2 °C 1017.3 hPa Calm     87% 0.0 mm 0 W/m2
07:11 15.4 °C 13.2 °C 1017.3 hPa Calm     87% 0.0 mm 0 W/m2
07:16 15.3 °C 13.1 °C 1017.3 hPa Calm     87% 0.0 mm 0 W/m2
07:21 15.2 °C 13.2 °C 1017.3 hPa Calm     88% 0.0 mm 0 W/m2
07:26 15.3 °C 13.3 °C 1017.3 hPa Calm     88% 0.0 mm 5 W/m2
07:31 15.3 °C 13.3 °C 1017.3 hPa Calm     88% 0.0 mm 7 W/m2
07:36 15.3 °C 13.3 °C 1017.3 hPa Calm     88% 0.0 mm 11 W/m2
07:41 15.3 °C 13.3 °C 1017.3 hPa Calm     88% 0.0 mm 12 W/m2
07:46 15.3 °C 13.5 °C 1017.3 hPa Calm     89% 0.0 mm 14 W/m2
07:51 15.3 °C 13.3 °C 1017.3 hPa Calm     88% 0.0 mm 16 W/m2
07:56 15.4 °C 13.4 °C 1017.6 hPa Calm     88% 0.0 mm 19 W/m2
08:01 15.4 °C 13.4 °C 1017.6 hPa Calm     88% 0.0 mm 21 W/m2
08:06 15.5 °C 13.5 °C 1017.6 hPa Calm     88% 0.0 mm 25 W/m2
08:11 15.6 °C 13.6 °C 1017.6 hPa Calm     88% 0.0 mm 28 W/m2
08:16 15.7 °C 13.5 °C 1017.6 hPa Calm     87% 0.0 mm 32 W/m2
08:21 15.8 °C 13.6 °C 1017.6 hPa Calm     87% 0.0 mm 44 W/m2
08:26 15.9 °C 13.6 °C 1017.6 hPa Calm     86% 0.0 mm 90 W/m2
08:31 16.1 °C 13.6 °C 1017.6 hPa Calm     85% 0.0 mm 93 W/m2
08:36 16.3 °C 13.8 °C 1017.6 hPa Calm     85% 0.0 mm 109 W/m2
08:41 16.5 °C 14 °C 1017.6 hPa ESE 1.4 km/h 3.2 km/h 85% 0.0 mm 123 W/m2
08:46 16.8 °C 14.1 °C 1017.6 hPa Calm   3.2 km/h 84% 0.0 mm 47 W/m2
08:51 17.1 °C 14.2 °C 1018.0 hPa ENE 3.2 km/h 3.2 km/h 83% 0.0 mm 42 W/m2
08:56 17.3 °C 14 °C 1018.0 hPa ENE 3.2 km/h 3.2 km/h 81% 0.0 mm 151 W/m2
09:01 17.6 °C 14.3 °C 1018.0 hPa Calm   1.6 km/h 81% 0.0 mm 178 W/m2
09:06 17.8 °C 14.5 °C 1018.0 hPa East 1.4 km/h 3.2 km/h 81% 0.0 mm 195 W/m2
09:11 18 °C 14.5 °C 1018.0 hPa ENE 1.4 km/h 3.2 km/h 80% 0.0 mm 204 W/m2
09:16 18.2 °C 14.5 °C 1018.0 hPa East 1.4 km/h 3.2 km/h 79% 0.0 mm 128 W/m2
09:21 18.5 °C 14.6 °C 1018.0 hPa Calm     78% 0.0 mm 62 W/m2
09:26 18.8 °C 14.7 °C 1018.0 hPa Calm     77% 0.0 mm 69 W/m2
09:31 19.2 °C 14.9 °C 1018.0 hPa Calm   3.2 km/h 76% 0.0 mm 90 W/m2
09:36 19.6 °C 15 °C 1018.0 hPa Calm     75% 0.0 mm 107 W/m2
09:41 19.8 °C 15.2 °C 1018.0 hPa East 1.4 km/h 1.6 km/h 75% 0.0 mm 132 W/m2
09:46 20.2 °C 15.4 °C 1018.0 hPa NE 1.4 km/h 3.2 km/h 74% 0.0 mm 142 W/m2
09:51 20.6 °C 15.2 °C 1018.0 hPa ENE 3.2 km/h 3.2 km/h 71% 0.0 mm 155 W/m2
09:56 20.9 °C 14.8 °C 1018.0 hPa NE 3.2 km/h 4.8 km/h 68% 0.0 mm 160 W/m2
10:01 21.1 °C 15 °C 1018.0 hPa NE 1.4 km/h 1.6 km/h 68% 0.0 mm 155 W/m2
10:06 21.3 °C 15.2 °C 1018.0 hPa East 4.7 km/h 4.8 km/h 68% 0.0 mm 158 W/m2
10:11 21.7 °C 15.1 °C 1018.0 hPa ENE 3.2 km/h 3.2 km/h 66% 0.0 mm 149 W/m2
10:16 21.9 °C 15 °C 1018.0 hPa Calm   1.6 km/h 65% 0.0 mm 139 W/m2
10:21 22.1 °C 15.2 °C 1018.0 hPa ENE 1.4 km/h 1.6 km/h 65% 0.0 mm 149 W/m2
10:26 22.4 °C 15.3 °C 1018.0 hPa ENE 4.7 km/h 4.8 km/h 64% 0.0 mm 132 W/m2
10:31 22.6 °C 15.2 °C 1018.0 hPa Calm   3.2 km/h 63% 0.0 mm 135 W/m2
10:36 22.5 °C 15.1 °C 1018.0 hPa Calm   3.2 km/h 63% 0.0 mm 142 W/m2
10:41 22.6 °C 15.2 °C 1018.0 hPa East 1.4 km/h 3.2 km/h 63% 0.0 mm 162 W/m2
10:46 22.6 °C 15.2 °C 1018.0 hPa East 1.4 km/h 3.2 km/h 63% 0.0 mm 155 W/m2
10:51 22.6 °C 14.9 °C 1018.0 hPa ENE 1.4 km/h 3.2 km/h 62% 0.0 mm 137 W/m2
10:56 22.7 °C 15 °C 1018.0 hPa Calm   1.6 km/h 62% 0.0 mm 107 W/m2
11:01 22.9 °C 15 °C 1018.0 hPa Calm     61% 0.0 mm 91 W/m2
11:06 23.2 °C 15 °C 1018.0 hPa Calm   1.6 km/h 60% 0.0 mm 86 W/m2
11:11 23.3 °C 14.3 °C 1018.0 hPa Calm   1.6 km/h 57% 0.0 mm 88 W/m2
11:16 23.6 °C 14.3 °C 1018.0 hPa Calm   3.2 km/h 56% 0.0 mm 88 W/m2
11:21 23.8 °C 14.8 °C 1018.0 hPa West 1.4 km/h 1.6 km/h 57% 0.0 mm 97 W/m2
11:26 24.3 °C 15.2 °C 1018.0 hPa Calm   3.2 km/h 57% 0.0 mm 95 W/m2
11:32 24.7 °C 15.1 °C 1018.0 hPa Calm   3.2 km/h 55% 0.0 mm 95 W/m2
11:37 25.2 °C 14.9 °C 1018.0 hPa Calm   1.6 km/h 53% 0.0 mm 93 W/m2
11:42 25.7 °C 15.1 °C 1018.0 hPa ENE 1.4 km/h 3.2 km/h 52% 0.0 mm 230 W/m2
11:47 25.8 °C 14.9 °C 1018.0 hPa ENE 1.4 km/h 1.6 km/h 51% 0.0 mm 541 W/m2
11:52 26.2 °C 15.3 °C 1018.0 hPa ESE 3.2 km/h 4.8 km/h 51% 0.0 mm 559 W/m2
11:57 26.6 °C 15.6 °C 1017.6 hPa ENE 1.4 km/h 3.2 km/h 51% 0.0 mm 568 W/m2
12:02 26.9 °C 15.6 °C 1017.6 hPa SSE 3.2 km/h 3.2 km/h 50% 0.0 mm 573 W/m2
12:07 27.2 °C 15.6 °C 1017.6 hPa SSE 1.4 km/h 1.6 km/h 49% 0.0 mm 578 W/m2
12:12 27.3 °C 15.6 °C 1017.6 hPa Calm   1.6 km/h 49% 0.0 mm 585 W/m2
12:17 27.4 °C 15.7 °C 1017.6 hPa WNW 3.2 km/h 3.2 km/h 49% 0.0 mm 599 W/m2
12:22 27.7 °C 16 °C 1017.6 hPa WNW 1.4 km/h 1.6 km/h 49% 0.0 mm 612 W/m2
12:27 27.9 °C 16.5 °C 1017.6 hPa Calm     50% 0.0 mm 629 W/m2
12:32 28.2 °C 16.1 °C 1017.6 hPa West 1.4 km/h 4.8 km/h 48% 0.0 mm 643 W/m2
12:37 28.5 °C 16.4 °C 1017.6 hPa East 1.4 km/h 1.6 km/h 48% 0.0 mm 671 W/m2
12:42 29.1 °C 16.3 °C 1017.6 hPa ENE 1.4 km/h 3.2 km/h 46% 0.0 mm 677 W/m2
12:47 29.3 °C 16.1 °C 1017.3 hPa ESE 3.2 km/h 3.2 km/h 45% 0.0 mm 691 W/m2
12:52 29.7 °C 16.5 °C 1017.3 hPa NE 3.2 km/h 4.8 km/h 45% 0.0 mm 686 W/m2
12:57 30.1 °C 16.9 °C 1017.3 hPa Calm   3.2 km/h 45% 0.0 mm 694 W/m2
13:02 30.1 °C 16.1 °C 1017.3 hPa Calm   3.2 km/h 43% 0.0 mm 671 W/m2
13:07 30.2 °C 16.2 °C 1017.3 hPa ENE 6.4 km/h 6.4 km/h 43% 0.0 mm 671 W/m2
13:12 30.3 °C 16.7 °C 1017.3 hPa SE 1.4 km/h 1.6 km/h 44% 0.0 mm 686 W/m2
13:17 30.6 °C 16.6 °C 1017.3 hPa ESE 3.2 km/h 6.4 km/h 43% 0.0 mm 719 W/m2
13:22 30.8 °C 16.4 °C 1016.9 hPa Calm   6.4 km/h 42% 0.0 mm 722 W/m2
13:27 31.1 °C 15.9 °C 1016.9 hPa East 3.2 km/h 6.4 km/h 40% 0.0 mm 714 W/m2
13:32 31.3 °C 15.7 °C 1016.9 hPa NNW 1.4 km/h 3.2 km/h 39% 0.0 mm 772 W/m2
13:37 31.4 °C 16.2 °C 1016.9 hPa Calm   6.4 km/h 40% 0.0 mm 738 W/m2
13:42 31.8 °C 15.7 °C 1016.9 hPa ESE 3.2 km/h 6.4 km/h 38% 0.0 mm 798 W/m2
13:47 31.9 °C 15.8 °C 1016.9 hPa ESE 1.4 km/h 1.6 km/h 38% 0.0 mm 803 W/m2
13:52 32.2 °C 15.7 °C 1016.9 hPa NE 4.7 km/h 9.7 km/h 37% 0.0 mm 803 W/m2
13:57 32.4 °C 15.8 °C 1016.9 hPa NE 3.2 km/h 4.8 km/h 37% 0.0 mm 775 W/m2
14:02 32.4 °C 15.4 °C 1016.9 hPa WNW 3.2 km/h 6.4 km/h 36% 0.0 mm 754 W/m2
14:07 32.5 °C 15.9 °C 1016.6 hPa ENE 3.2 km/h 6.4 km/h 37% 0.0 mm 731 W/m2
14:12 32.4 °C 15.4 °C 1016.6 hPa NE 4.7 km/h 4.8 km/h 36% 0.0 mm 714 W/m2
14:17 32.5 °C 15.1 °C 1016.6 hPa ENE 6.4 km/h 8 km/h 35% 0.0 mm 733 W/m2
14:22 32.6 °C 15.1 °C 1016.6 hPa Calm   6.4 km/h 35% 0.0 mm 759 W/m2
14:27 32.8 °C 14.9 °C 1016.6 hPa WNW 1.4 km/h 8 km/h 34% 0.0 mm 768 W/m2
14:32 32.9 °C 15.4 °C 1016.6 hPa SE 3.2 km/h 9.7 km/h 35% 0.0 mm 454 W/m2
14:37 32.8 °C 14.9 °C 1016.3 hPa Calm   3.2 km/h 34% 0.0 mm 731 W/m2
14:42 32.8 °C 14.4 °C 1016.3 hPa East 4.7 km/h 11.3 km/h 33% 0.0 mm 668 W/m2
14:47 32.8 °C 14.4 °C 1016.3 hPa ENE 3.2 km/h 6.4 km/h 33% 0.0 mm 703 W/m2
14:52 32.8 °C 14.9 °C 1016.3 hPa NW 3.2 km/h 8 km/h 34% 0.0 mm 686 W/m2
14:57 33.1 °C 14.2 °C 1016.3 hPa Calm   4.8 km/h 32% 0.0 mm 679 W/m2
15:02 33.1 °C 14.2 °C 1016.3 hPa North 6.4 km/h 14.5 km/h 32% 0.0 mm 677 W/m2
15:07 33.1 °C 15.1 °C 1016.3 hPa East 3.2 km/h 11.3 km/h 34% 0.0 mm 668 W/m2
15:12 33.2 °C 15.2 °C 1015.9 hPa ESE 4.7 km/h 14.5 km/h 34% 0.0 mm 622 W/m2
15:17 33.3 °C 14.8 °C 1015.9 hPa East 1.4 km/h 9.7 km/h 33% 0.0 mm 598 W/m2
15:22 33.3 °C 14.4 °C 1015.9 hPa NE 3.2 km/h 12.9 km/h 32% 0.0 mm 589 W/m2
15:27 33.4 °C 14.5 °C 1015.9 hPa East 3.2 km/h 4.8 km/h 32% 0.0 mm 591 W/m2
15:32 33.4 °C 14 °C 1015.6 hPa ENE 1.4 km/h 4.8 km/h 31% 0.0 mm 601 W/m2
15:37 33.5 °C 13.5 °C 1015.6 hPa Calm   3.2 km/h 30% 0.0 mm 599 W/m2
15:42 33.7 °C 13.7 °C 1015.6 hPa Calm   4.8 km/h 30% 0.0 mm 580 W/m2
15:47 33.5 °C 13.5 °C 1015.6 hPa West 4.7 km/h 6.4 km/h 30% 0.0 mm 246 W/m2
15:53 33.1 °C 14.2 °C 1015.6 hPa SW 1.4 km/h 1.6 km/h 32% 0.0 mm 97 W/m2
15:58 32.7 °C 13.8 °C 1015.6 hPa NW 3.2 km/h 4.8 km/h 32% 0.0 mm 120 W/m2
16:03 32.3 °C 13 °C 1015.6 hPa NE 4.7 km/h 6.4 km/h 31% 0.0 mm 137 W/m2
16:08 32.2 °C 13.4 °C 1015.6 hPa East 3.2 km/h 6.4 km/h 32% 0.0 mm 146 W/m2
16:13 31.8 °C 12.6 °C 1015.9 hPa NNW 6.4 km/h 20.9 km/h 31% 0.0 mm 137 W/m2
16:18 31.1 °C 12.9 °C 1015.9 hPa NNW 6.4 km/h 11.3 km/h 33% 0.0 mm 142 W/m2
16:23 30.6 °C 11.5 °C 1015.9 hPa WNW 11.1 km/h 12.9 km/h 31% 0.0 mm 148 W/m2
16:28 29.8 °C 10.4 °C 1016.3 hPa NNW 6.4 km/h 24.1 km/h 30% 0.0 mm 142 W/m2
16:33 29.1 °C 10.7 °C 1016.3 hPa WNW 3.2 km/h 25.7 km/h 32% 0.0 mm 127 W/m2
16:38 28.8 °C 10.9 °C 1016.3 hPa North 7.9 km/h 20.9 km/h 33% 0.0 mm 102 W/m2
16:43 28.8 °C 10.9 °C 1016.3 hPa WNW 7.9 km/h 16.1 km/h 33% 0.0 mm 86 W/m2
16:48 28.7 °C 11.7 °C 1016.3 hPa WNW 14.3 km/h 24.1 km/h 35% 0.0 mm 65 W/m2
16:53 28.3 °C 11.8 °C 1016.3 hPa NW 9.7 km/h 19.3 km/h 36% 0.0 mm 53 W/m2
16:58 28.1 °C 12.8 °C 1016.6 hPa WNW 9.7 km/h 30.6 km/h 39% 0.0 mm 40 W/m2
17:03 27.6 °C 12.8 °C 1016.3 hPa WNW 19.5 km/h 22.5 km/h 40% 0.0 mm 37 W/m2
17:08 27.6 °C 12.8 °C 1016.6 hPa NW 14.3 km/h 17.7 km/h 40% 0.0 mm 40 W/m2
17:13 27.6 °C 12 °C 1016.9 hPa WNW 6.4 km/h 19.3 km/h 38% 0.0 mm 47 W/m2
17:18 27.6 °C 12.4 °C 1016.9 hPa WNW 6.4 km/h 17.7 km/h 39% 0.0 mm 53 W/m2
17:23 27.3 °C 12.5 °C 1016.9 hPa NW 14.3 km/h 19.3 km/h 40% 0.0 mm 51 W/m2
17:28 26.7 °C 13.4 °C 1016.9 hPa NW 7.9 km/h 12.9 km/h 44% 0.0 mm 47 W/m2
17:34 26.1 °C 13.6 °C 1016.9 hPa West 6.4 km/h 12.9 km/h 46% 0.0 mm 42 W/m2
17:39 25.7 °C 13.5 °C 1016.9 hPa WNW 4.7 km/h 11.3 km/h 47% 0.0 mm 39 W/m2
17:44 25.8 °C 13.3 °C 1016.9 hPa NNW 1.4 km/h 8 km/h 46% 0.0 mm 37 W/m2
17:49 26.1 °C 12.9 °C 1016.9 hPa NW 7.9 km/h 16.1 km/h 44% 0.0 mm 39 W/m2
17:54 26.4 °C 12.8 °C 1016.9 hPa NW 3.2 km/h 11.3 km/h 43% 0.0 mm 46 W/m2
17:59 26.6 °C 13.3 °C 1016.9 hPa WNW 4.7 km/h 14.5 km/h 44% 0.0 mm 47 W/m2
18:04 26.8 °C 12.4 °C 1016.9 hPa North 3.2 km/h 24.1 km/h 41% 0.0 mm 49 W/m2
18:09 27.1 °C 12.3 °C 1017.3 hPa NW 3.2 km/h 11.3 km/h 40% 0.0 mm 54 W/m2
18:14 27.1 °C 12.7 °C 1017.3 hPa ESE 4.7 km/h 8 km/h 41% 0.0 mm 58 W/m2
18:19 26.8 °C 12.4 °C 1017.3 hPa NW 16.3 km/h 16.1 km/h 41% 0.0 mm 51 W/m2
18:24 26.7 °C 12.7 °C 1017.6 hPa NNW 7.9 km/h 14.5 km/h 42% 0.0 mm 39 W/m2
18:29 26.6 °C 13 °C 1017.3 hPa NNW 3.2 km/h 9.7 km/h 43% 0.0 mm 28 W/m2
18:34 26.4 °C 13.2 °C 1017.3 hPa West 3.2 km/h 4.8 km/h 44% 0.0 mm 26 W/m2
18:39 26.3 °C 13.1 °C 1017.3 hPa West 1.4 km/h 4.8 km/h 44% 0.0 mm 25 W/m2
18:44 26.2 °C 13 °C 1017.3 hPa NNW 4.7 km/h 11.3 km/h 44% 0.0 mm 19 W/m2
18:49 26.1 °C 12.9 °C 1017.3 hPa West 3.2 km/h 4.8 km/h 44% 0.0 mm 18 W/m2
18:54 26.1 °C 12.9 °C 1017.3 hPa WSW 1.4 km/h 11.3 km/h 44% 0.0 mm 16 W/m2
18:59 26.1 °C 12.9 °C 1017.3 hPa NW 1.4 km/h 3.2 km/h 44% 0.0 mm 14 W/m2
19:04 26 °C 13.1 °C 1017.3 hPa West 3.2 km/h 4.8 km/h 45% 0.0 mm 12 W/m2
19:09 25.8 °C 13 °C 1017.3 hPa WNW 1.4 km/h 3.2 km/h 45% 0.0 mm 12 W/m2
19:14 25.8 °C 13 °C 1017.3 hPa NW 1.4 km/h 3.2 km/h 45% 0.0 mm 11 W/m2
19:19 25.6 °C 13.1 °C 1017.3 hPa West 4.7 km/h 4.8 km/h 46% 0.0 mm 11 W/m2
19:24 25.5 °C 13 °C 1017.3 hPa WNW 1.4 km/h 1.6 km/h 46% 0.0 mm 9 W/m2
19:29 25.3 °C 13.2 °C 1017.3 hPa West 3.2 km/h 3.2 km/h 47% 0.0 mm 5 W/m2
19:34 25.2 °C 13.4 °C 1017.3 hPa Calm   3.2 km/h 48% 0.0 mm 0 W/m2
19:39 25 °C 13.5 °C 1016.9 hPa SW 3.2 km/h 3.2 km/h 49% 0.0 mm 0 W/m2
19:44 24.8 °C 13 °C 1016.9 hPa Calm   3.2 km/h 48% 0.0 mm 0 W/m2
19:49 24.7 °C 13.3 °C 1016.9 hPa WSW 1.4 km/h 1.6 km/h 49% 0.0 mm 0 W/m2
19:54 24.5 °C 13.1 °C 1016.9 hPa WSW 3.2 km/h 3.2 km/h 49% 0.0 mm 0 W/m2
19:59 24.4 °C 13 °C 1016.9 hPa WSW 1.4 km/h 3.2 km/h 49% 0.0 mm 0 W/m2
20:04 24.3 °C 13.2 °C 1016.9 hPa WSW 1.4 km/h 3.2 km/h 50% 0.0 mm 0 W/m2
20:09 24.2 °C 14.6 °C 1017.3 hPa WNW 6.4 km/h 6.4 km/h 55% 0.0 mm 0 W/m2
20:14 23.9 °C 14.9 °C 1017.3 hPa WNW 1.4 km/h 1.6 km/h 57% 0.0 mm 0 W/m2
20:19 23.8 °C 15 °C 1017.3 hPa Calm     58% 0.0 mm 0 W/m2
20:24 23.6 °C 14.3 °C 1017.3 hPa Calm     56% 0.0 mm 0 W/m2
20:29 23.4 °C 14.7 °C 1017.6 hPa Calm     58% 0.0 mm 0 W/m2
20:34 23.3 °C 14.8 °C 1018.0 hPa ENE 1.4 km/h 3.2 km/h 59% 0.0 mm 0 W/m2
20:39 23.3 °C 14.8 °C 1018.0 hPa ENE 1.4 km/h 3.2 km/h 59% 0.0 mm 0 W/m2
20:44 23.2 °C 15 °C 1018.3 hPa ENE 1.4 km/h 3.2 km/h 60% 0.0 mm 0 W/m2
20:49 23.1 °C 14.6 °C 1018.3 hPa East 1.4 km/h 6.4 km/h 59% 0.0 mm 0 W/m2
20:54 22.9 °C 14.7 °C 1018.6 hPa Calm   1.6 km/h 60% 0.0 mm 0 W/m2
20:59 22.8 °C 14.4 °C 1018.6 hPa Calm   4.8 km/h 59% 0.0 mm 0 W/m2
21:04 22.8 °C 14.4 °C 1019.0 hPa Calm     59% 0.0 mm 0 W/m2
21:09 22.8 °C 14.4 °C 1019.0 hPa ENE 1.4 km/h 1.6 km/h 59% 0.0 mm 0 W/m2
21:14 22.7 °C 14.3 °C 1019.0 hPa Calm     59% 0.0 mm 0 W/m2
21:19 22.7 °C 14 °C 1019.0 hPa WSW 3.2 km/h 4.8 km/h 58% 0.0 mm 0 W/m2
21:24 22.8 °C 14.4 °C 1019.0 hPa Calm   3.2 km/h 59% 0.0 mm 0 W/m2
21:29 22.7 °C 14.3 °C 1019.0 hPa Calm   4.8 km/h 59% 0.0 mm 0 W/m2
21:34 22.6 °C 14.2 °C 1019.0 hPa West 3.2 km/h 4.8 km/h 59% 0.0 mm 0 W/m2
21:40 22.5 °C 14.3 °C 1019.3 hPa West 1.4 km/h 3.2 km/h 60% 0.0 mm 0 W/m2
21:45 22.4 °C 14.3 °C 1019.3 hPa West 1.4 km/h 4.8 km/h 60% 0.0 mm 0 W/m2
21:50 22.3 °C 14.4 °C 1019.3 hPa WSW 1.4 km/h 3.2 km/h 61% 0.0 mm 0 W/m2
21:55 22.2 °C 14.6 °C 1019.3 hPa WSW 1.4 km/h 1.6 km/h 62% 0.0 mm 0 W/m2
22:00 22.1 °C 14.5 °C 1019.3 hPa Calm     62% 0.0 mm 0 W/m2
22:05 21.9 °C 14.5 °C 1019.3 hPa Calm     63% 0.0 mm 0 W/m2
22:10 21.7 °C 14.6 °C 1019.3 hPa Calm   1.6 km/h 64% 0.0 mm 0 W/m2
22:15 21.5 °C 14.4 °C 1019.3 hPa WSW 1.4 km/h 1.6 km/h 64% 0.0 mm 0 W/m2
22:20 21.4 °C 14.5 °C 1019.3 hPa Calm   1.6 km/h 65% 0.0 mm 0 W/m2
22:25 21.2 °C 14.4 °C 1019.3 hPa WSW 1.4 km/h 1.6 km/h 65% 0.0 mm 0 W/m2
22:30 21.1 °C 14.5 °C 1019.6 hPa Calm   1.6 km/h 66% 0.0 mm 0 W/m2
22:35 20.9 °C 14.5 °C 1019.6 hPa SW 1.4 km/h 4.8 km/h 67% 0.0 mm 0 W/m2
22:40 20.8 °C 14.4 °C 1019.6 hPa SW 1.4 km/h 4.8 km/h 67% 0.0 mm 0 W/m2
22:45 20.7 °C 14.6 °C 1019.6 hPa Calm     68% 0.0 mm 0 W/m2
22:50 20.7 °C 14.6 °C 1019.6 hPa Calm   4.8 km/h 68% 0.0 mm 0 W/m2
22:55 20.6 °C 14.7 °C 1019.6 hPa SW 3.2 km/h 3.2 km/h 69% 0.0 mm 0 W/m2
23:00 20.6 °C 14.7 °C 1019.6 hPa Calm   1.6 km/h 69% 0.0 mm 0 W/m2
23:05 20.5 °C 14.8 °C 1019.6 hPa SW 1.4 km/h 1.6 km/h 70% 0.0 mm 0 W/m2
23:10 20.5 °C 15.1 °C 1019.6 hPa Calm   3.2 km/h 71% 0.0 mm 0 W/m2
23:15 20.5 °C 15.1 °C 1019.6 hPa SW 1.4 km/h 3.2 km/h 71% 0.0 mm 0 W/m2
23:20 20.6 °C 15.2 °C 1020.0 hPa Calm   1.6 km/h 71% 0.0 mm 0 W/m2
23:25 20.6 °C 15.4 °C 1020.0 hPa SW 1.4 km/h 3.2 km/h 72% 0.0 mm 0 W/m2
23:30 20.7 °C 15.3 °C 1020.0 hPa WSW 1.4 km/h 4.8 km/h 71% 0.0 mm 0 W/m2
23:35 20.9 °C 15.4 °C 1020.0 hPa NNW 1.4 km/h 4.8 km/h 71% 0.0 mm 0 W/m2
23:40 21.2 °C 15.5 °C 1020.0 hPa WNW 3.2 km/h 3.2 km/h 70% 0.0 mm 0 W/m2
23:45 21.3 °C 15.6 °C 1020.0 hPa NW 3.2 km/h 8 km/h 70% 0.0 mm 0 W/m2
23:50 21.4 °C 15.7 °C 1020.3 hPa West 3.2 km/h 9.7 km/h 70% 0.0 mm 0 W/m2
23:55 21.4 °C 15.7 °C 1020.3 hPa WNW 3.2 km/h 6.4 km/h 70% 0.0 mm 0 W/m2
Juneau County Weather
Compliments of Weather Underground - 4 mb